Starlink 11280

operational
NORAD ID: 61245 Int'l Des: 2024-175 Owner: SPXS Country: US Constellation: starlink
LEOCIRCULAR

Starlink 11280について

説明を読み込み中...

リアルタイム位置

3D地球を読み込み中...

次回通過

高度履歴

Altitude vs Time

uPlot chart will show altitude changes over time

軌道要素

1 61245U 24175C 25352.48059939 -.00002029 00000-0 -11890-4 0 9999
2 61245 53.1595 96.4635 0000987 84.2263 275.8868 15.69721303 70615
Epoch: Dec 18, 2025 • Age: 16 hours

現在のステータス

高度 376.6 km
速度 7.68 km/s
衛星直下点 -47.54°S, 178.33°W
打ち上げ日 Sep 25, 2024
運用期間 1.2 years
タイプ internet

技術仕様

分類 Payload
質量 960.00 kg
乾燥質量 910.00 kg
総質量 960.00 kg
長さ 0.30 m
直径 4.10 m
スパン 29.00 m
形状 Box + pan
製造者 SPXS
バスタイプ Starlink V2MD
フェーズステータス In Orbit
所有者/国 SPXS/US

大規模コンステレーション

Loading constellations...